TVF47D EDDN-OEMA

Flight info

Callsign TVF47D
Flight time 4h 34m
Altitude 33000
Route RODIS1C/10 RODIS L604 RUDNO T203 TIVDA T703 BEPAS DCT DITIS DCT PESAT DCT BAREB DCT TUVAR DCT ODLET DCT VABEK/N0458F350 UL603 OLOTA DCT DISOR UL608 FSK UG18 MES UL609 RDS UL995 VANZA N134 SAFTA L324 LAKTO L560 VUTAR/N0463F370 L560 SILKA J852 KULKI
Aircraft B738/M-SDE2E3FGHIRWXY/LB1

Departure

Time 2026-04-22 10:29
Airport Nuremberg Airport (EDDN)

Arrival

Time 2026-04-22 15:03
Airport Prince Mohammad Bin Abdulaziz Airport (OEMA)
Time Latitude Longitude Altitude Speed Heading
2026-04-22 10:00 49.49516 11.07791 1034 ft 0 kts 188°
2026-04-22 10:17 49.49518 11.07792 1034 ft 2 kts 188°
2026-04-22 10:17 49.49536 11.07795 1034 ft 3 kts 188°
2026-04-22 10:17 49.49553 11.07801 1035 ft 2 kts 206°
2026-04-22 10:17 49.49567 11.07816 1035 ft 2 kts 233°
2026-04-22 10:18 49.49574 11.07839 1036 ft 3 kts 262°
2026-04-22 10:18 49.49575 11.07853 1036 ft 0 kts 277°
2026-04-22 10:22 49.49584 11.07775 1036 ft 12 kts 279°
2026-04-22 10:22 49.49597 11.07654 1036 ft 11 kts 278°
2026-04-22 10:22 49.49609 11.07538 1035 ft 11 kts 276°
2026-04-22 10:22 49.49618 11.07424 1034 ft 11 kts 277°
2026-04-22 10:23 49.49629 11.07313 1033 ft 10 kts 279°
2026-04-22 10:23 49.49659 11.07239 1034 ft 2 kts 335°
2026-04-22 10:23 49.49677 11.07230 1035 ft 6 kts 348°
2026-04-22 10:23 49.49738 11.07166 1035 ft 12 kts 292°
2026-04-22 10:24 49.49735 11.06928 1030 ft 28 kts 237°
2026-04-22 10:24 49.49783 11.06706 1028 ft 29 kts 287°
2026-04-22 10:24 49.49813 11.06409 1030 ft 27 kts 278°
2026-04-22 10:24 49.49843 11.06134 1029 ft 15 kts 279°
2026-04-22 10:25 49.49878 11.05996 1032 ft 9 kts 322°
2026-04-22 10:25 49.49902 11.05972 1033 ft 3 kts 329°
2026-04-22 10:25 49.49922 11.05957 1033 ft 3 kts 335°
2026-04-22 10:25 49.49930 11.05951 1033 ft 0 kts 335°
2026-04-22 10:26 49.49940 11.05945 1033 ft 5 kts 340°
2026-04-22 10:26 49.49952 11.05940 1032 ft 0 kts 346°
2026-04-22 10:26 49.49964 11.05935 1032 ft 9 kts 346°
2026-04-22 10:27 49.50025 11.05951 1031 ft 9 kts 39°
2026-04-22 10:27 49.50042 11.06043 1032 ft 9 kts 92°
2026-04-22 10:27 49.50042 11.06054 1033 ft 0 kts 96°
2026-04-22 10:28 49.50030 11.06190 1034 ft 41 kts 98°
2026-04-22 10:28 49.49953 11.06973 1034 ft 105 kts 99°
2026-04-22 10:28 49.49813 11.08369 1050 ft 157 kts 99°
2026-04-22 10:28 49.49634 11.10097 1636 ft 163 kts 97°
2026-04-22 10:29 49.49499 11.11818 2469 ft 165 kts 94°
2026-04-22 10:29 49.49411 11.13637 3032 ft 175 kts 92°
2026-04-22 10:29 49.49245 11.15593 3462 ft 194 kts 100°
2026-04-22 10:29 49.48977 11.17715 3683 ft 212 kts 99°
2026-04-22 10:30 49.48710 11.20014 3996 ft 224 kts 98°
2026-04-22 10:30 49.48464 11.22454 4380 ft 241 kts 97°
2026-04-22 10:30 49.48189 11.25100 4930 ft 256 kts 98°
2026-04-22 10:30 49.48037 11.27803 5921 ft 251 kts 90°
2026-04-22 10:31 49.48032 11.30508 6658 ft 255 kts 89°
2026-04-22 10:31 49.48042 11.33252 7359 ft 258 kts 89°
2026-04-22 10:31 49.48044 11.36021 8107 ft 259 kts 89°
2026-04-22 10:31 49.48032 11.38813 8842 ft 263 kts 89°
2026-04-22 10:32 49.48008 11.41634 9537 ft 265 kts 89°
2026-04-22 10:32 49.47984 11.44490 10215 ft 268 kts 89°
2026-04-22 10:32 49.47960 11.47354 10678 ft 278 kts 89°
2026-04-22 10:32 49.47935 11.50445 10849 ft 300 kts 89°
2026-04-22 10:33 49.47907 11.53757 10987 ft 319 kts 89°
2026-04-22 10:33 49.47874 11.57271 11138 ft 338 kts 89°
2026-04-22 10:33 49.47832 11.60987 11344 ft 355 kts 90°
2026-04-22 10:33 49.47789 11.64815 11823 ft 361 kts 89°
2026-04-22 10:34 49.47749 11.68692 12443 ft 363 kts 89°
2026-04-22 10:34 49.47706 11.72590 13067 ft 367 kts 89°
2026-04-22 10:34 49.47662 11.76526 13622 ft 371 kts 89°
2026-04-22 10:34 49.47617 11.80517 14168 ft 375 kts 89°
2026-04-22 10:35 49.47570 11.84549 14690 ft 378 kts 89°
2026-04-22 10:35 49.47519 11.88606 15207 ft 382 kts 89°
2026-04-22 10:35 49.47465 11.92712 15676 ft 385 kts 90°
2026-04-22 10:35 49.47135 11.96771 16125 ft 392 kts 105°
2026-04-22 10:36 49.46195 12.00722 16629 ft 395 kts 108°
2026-04-22 10:36 49.45224 12.04701 17060 ft 399 kts 108°
2026-04-22 10:36 49.44263 12.08721 17515 ft 403 kts 108°
2026-04-22 10:36 49.43306 12.12777 18051 ft 403 kts 108°
2026-04-22 10:37 49.42356 12.16837 18684 ft 405 kts 108°
2026-04-22 10:37 49.40443 12.25026 19804 ft 410 kts 108°
2026-04-22 10:37 49.39476 12.29155 20401 ft 411 kts 108°
2026-04-22 10:38 49.38507 12.33288 20989 ft 413 kts 108°
2026-04-22 10:38 49.37532 12.37437 21588 ft 413 kts 108°
2026-04-22 10:38 49.36556 12.41577 22207 ft 413 kts 108°
2026-04-22 10:38 49.35601 12.45728 22822 ft 411 kts 103°
2026-04-22 10:39 49.35285 12.50025 23432 ft 404 kts 83°
2026-04-22 10:39 49.35907 12.54174 24061 ft 397 kts 65°
2026-04-22 10:39 49.37033 12.58009 24601 ft 395 kts 71°
2026-04-22 10:39 49.37327 12.62185 25149 ft 397 kts 95°
2026-04-22 10:40 49.36500 12.66207 25707 ft 400 kts 118°
2026-04-22 10:40 49.34736 12.69472 26309 ft 398 kts 134°
2026-04-22 10:40 49.32811 12.72490 26903 ft 393 kts 129°
2026-04-22 10:40 49.31035 12.75627 27492 ft 387 kts 128°
2026-04-22 10:41 49.29330 12.78788 28089 ft 381 kts 127°
2026-04-22 10:41 49.27672 12.81905 28697 ft 375 kts 127°
2026-04-22 10:41 49.26026 12.84996 29033 ft 377 kts 127°
2026-04-22 10:42 49.22632 12.91317 29162 ft 391 kts 127°
2026-04-22 10:42 49.19117 12.97796 29325 ft 405 kts 127°
2026-04-22 10:43 49.15449 13.04517 29474 ft 419 kts 128°
2026-04-22 10:43 49.11651 13.11455 29612 ft 432 kts 128°
2026-04-22 10:44 49.07738 13.18584 29728 ft 444 kts 128°
2026-04-22 10:44 49.03714 13.25896 29840 ft 456 kts 128°
2026-04-22 10:45 48.99585 13.33380 29961 ft 466 kts 128°
2026-04-22 10:45 48.95377 13.40987 30143 ft 473 kts 128°
2026-04-22 10:45 48.93249 13.44829 30337 ft 475 kts 127°
2026-04-22 10:46 48.91421 13.48984 30523 ft 472 kts 114°
2026-04-22 10:46 48.90264 13.53608 30753 ft 467 kts 102°
2026-04-22 10:46 48.89739 13.58451 30921 ft 464 kts 89°
2026-04-22 10:46 48.89753 13.63353 31093 ft 464 kts 86°
2026-04-22 10:47 48.89822 13.68265 31238 ft 465 kts 86°
2026-04-22 10:47 48.89892 13.73179 31424 ft 466 kts 86°
2026-04-22 10:47 48.89949 13.78105 31641 ft 466 kts 87°
2026-04-22 10:47 48.89990 13.83020 31836 ft 466 kts 87°
2026-04-22 10:48 48.90018 13.87958 31974 ft 468 kts 87°
2026-04-22 10:48 48.90038 13.92907 32154 ft 468 kts 88°
2026-04-22 10:48 48.90052 13.97844 32364 ft 468 kts 88°
2026-04-22 10:48 48.90063 14.02724 32560 ft 468 kts 88°
2026-04-22 10:49 48.90072 14.07676 32704 ft 469 kts 88°
2026-04-22 10:49 48.90079 14.12639 32860 ft 470 kts 88°
2026-04-22 10:49 48.90085 14.17599 33064 ft 470 kts 88°
2026-04-22 10:49 48.90089 14.22565 33253 ft 470 kts 88°
2026-04-22 10:50 48.90091 14.27542 33270 ft 472 kts 88°
2026-04-22 10:50 48.90089 14.35901 33278 ft 472 kts 88°
2026-04-22 10:51 48.90079 14.45834 33284 ft 469 kts 88°
2026-04-22 10:51 48.90061 14.55649 33277 ft 467 kts 88°
2026-04-22 10:52 48.90035 14.65494 33270 ft 465 kts 88°
2026-04-22 10:52 48.90001 14.75340 33274 ft 466 kts 88°
2026-04-22 10:53 48.89959 14.85196 33273 ft 467 kts 89°
2026-04-22 10:53 48.89908 14.95098 33271 ft 469 kts 89°
2026-04-22 10:54 48.89820 15.05029 33257 ft 472 kts 93°
2026-04-22 10:54 48.89207 15.09943 33260 ft 475 kts 108°
2026-04-22 10:54 48.87884 15.14540 33255 ft 478 kts 120°
2026-04-22 10:54 48.85918 15.18610 33265 ft 479 kts 131°
2026-04-22 10:55 48.83679 15.22363 33259 ft 480 kts 132°
2026-04-22 10:55 48.79137 15.29808 33252 ft 482 kts 132°
2026-04-22 10:56 48.74635 15.37257 33243 ft 483 kts 132°
2026-04-22 10:56 48.70123 15.44807 33244 ft 484 kts 132°
2026-04-22 10:57 48.65617 15.52364 33241 ft 484 kts 132°
2026-04-22 10:57 48.61110 15.59902 33237 ft 483 kts 132°
2026-04-22 10:58 48.56588 15.67437 33237 ft 483 kts 132°
2026-04-22 10:58 48.52075 15.74934 33236 ft 482 kts 132°
2026-04-22 10:59 48.47558 15.82416 33240 ft 482 kts 133°
2026-04-22 10:59 48.43045 15.89869 33236 ft 481 kts 133°
2026-04-22 11:00 48.38530 15.97304 33229 ft 481 kts 133°
2026-04-22 11:00 48.34033 16.04691 33234 ft 481 kts 133°
2026-04-22 11:01 48.29506 16.12105 33230 ft 482 kts 133°
2026-04-22 11:01 48.24956 16.19536 33226 ft 482 kts 133°
2026-04-22 11:02 48.20431 16.26904 33222 ft 483 kts 133°
2026-04-22 11:02 48.15881 16.34292 33215 ft 484 kts 133°
2026-04-22 11:03 48.11300 16.41710 33217 ft 485 kts 134°
2026-04-22 11:03 48.06711 16.49121 33213 ft 486 kts 134°
2026-04-22 11:04 48.02110 16.56530 33208 ft 487 kts 134°
2026-04-22 11:04 47.97500 16.63933 33217 ft 487 kts 134°
2026-04-22 11:05 47.92873 16.71338 33210 ft 488 kts 134°
2026-04-22 11:05 47.88232 16.78750 33219 ft 489 kts 134°
2026-04-22 11:06 47.83580 16.86160 33219 ft 490 kts 134°
2026-04-22 11:06 47.78949 16.93517 33215 ft 491 kts 134°
2026-04-22 11:07 47.74275 17.00918 33208 ft 491 kts 135°
2026-04-22 11:07 47.68988 17.07248 33208 ft 487 kts 153°
2026-04-22 11:08 47.62933 17.11648 33204 ft 485 kts 157°
2026-04-22 11:08 47.56823 17.15889 33198 ft 485 kts 157°
2026-04-22 11:09 47.50730 17.20176 33193 ft 485 kts 157°
2026-04-22 11:09 47.44649 17.24498 33195 ft 485 kts 157°
2026-04-22 11:10 47.38569 17.28824 33189 ft 485 kts 157°
2026-04-22 11:10 47.32471 17.33150 33184 ft 485 kts 157°
2026-04-22 11:11 47.26424 17.37427 33191 ft 485 kts 157°
2026-04-22 11:11 47.20332 17.41723 33186 ft 486 kts 157°
2026-04-22 11:12 47.14223 17.46019 33190 ft 486 kts 157°
2026-04-22 11:12 47.08146 17.50283 33184 ft 486 kts 157°
2026-04-22 11:13 47.02037 17.54557 33188 ft 487 kts 158°
2026-04-22 11:13 46.95923 17.58825 33179 ft 487 kts 158°
2026-04-22 11:14 46.89802 17.63086 33186 ft 488 kts 158°
2026-04-22 11:14 46.83670 17.67344 33180 ft 488 kts 158°
2026-04-22 11:15 46.77532 17.71596 33187 ft 488 kts 158°
2026-04-22 11:15 46.71420 17.75820 33180 ft 489 kts 158°
2026-04-22 11:16 46.65260 17.80064 33196 ft 490 kts 158°
2026-04-22 11:16 46.59085 17.84310 33188 ft 491 kts 158°
2026-04-22 11:17 46.52900 17.88551 33191 ft 492 kts 158°
2026-04-22 11:17 46.46698 17.92793 33191 ft 493 kts 159°
2026-04-22 11:18 46.40492 17.97027 33194 ft 493 kts 159°
2026-04-22 11:18 46.34312 18.01233 33186 ft 494 kts 159°
2026-04-22 11:19 46.28088 18.05458 33193 ft 495 kts 159°
2026-04-22 11:19 46.21850 18.09682 33198 ft 495 kts 159°
2026-04-22 11:20 46.15604 18.13901 33222 ft 496 kts 159°
2026-04-22 11:20 46.09333 18.18126 33197 ft 496 kts 159°
2026-04-22 11:21 46.03075 18.22332 33211 ft 497 kts 159°
2026-04-22 11:21 45.96813 18.26530 33201 ft 497 kts 160°
2026-04-22 11:22 45.90582 18.30697 33213 ft 497 kts 160°
2026-04-22 11:22 45.84318 18.34876 33200 ft 496 kts 160°
2026-04-22 11:23 45.78048 18.39050 33191 ft 496 kts 160°
2026-04-22 11:23 45.72004 18.43896 33184 ft 503 kts 147°
2026-04-22 11:24 45.66443 18.50005 33169 ft 505 kts 146°
2026-04-22 11:24 45.60897 18.56153 33160 ft 504 kts 146°
2026-04-22 11:25 45.55312 18.62230 33163 ft 504 kts 147°
2026-04-22 11:25 45.49718 18.68250 33156 ft 504 kts 147°
2026-04-22 11:26 45.44120 18.74252 33156 ft 504 kts 147°
2026-04-22 11:26 45.38531 18.80231 33303 ft 495 kts 144°
2026-04-22 11:26 45.35818 18.83133 33192 ft 483 kts 144°
2026-04-22 11:27 45.33152 18.85983 33159 ft 477 kts 144°
2026-04-22 11:27 45.27864 18.91621 33166 ft 481 kts 144°
2026-04-22 11:28 45.22479 18.97348 33168 ft 486 kts 144°
2026-04-22 11:28 45.17041 19.03118 33163 ft 490 kts 144°
2026-04-22 11:29 45.11129 19.07836 33163 ft 488 kts 161°
2026-04-22 11:29 45.04582 19.10151 33172 ft 484 kts 172°
2026-04-22 11:30 44.97959 19.11834 33159 ft 484 kts 172°
2026-04-22 11:30 44.91344 19.13553 33156 ft 483 kts 172°
2026-04-22 11:31 44.84740 19.15325 33153 ft 483 kts 172°
2026-04-22 11:31 44.79265 19.16807 33154 ft 481 kts 172°
2026-04-22 11:32 44.71598 19.18883 33142 ft 478 kts 173°
2026-04-22 11:32 44.65125 19.20628 33147 ft 476 kts 173°
2026-04-22 11:33 44.58624 19.22373 33152 ft 475 kts 173°
2026-04-22 11:33 44.52127 19.24112 33153 ft 476 kts 173°
2026-04-22 11:34 44.46663 19.25571 33149 ft 478 kts 173°
2026-04-22 11:34 44.39047 19.27602 33145 ft 481 kts 173°
2026-04-22 11:35 44.32453 19.29357 33144 ft 483 kts 173°
2026-04-22 11:35 44.25847 19.31111 33146 ft 484 kts 174°
2026-04-22 11:36 44.19226 19.32865 33135 ft 485 kts 174°
2026-04-22 11:36 44.13710 19.34323 33136 ft 486 kts 174°
2026-04-22 11:37 44.05940 19.36373 33127 ft 487 kts 174°
2026-04-22 11:37 43.99354 19.38299 33115 ft 491 kts 166°
2026-04-22 11:38 43.93240 19.42630 33115 ft 500 kts 146°
2026-04-22 11:38 43.85576 19.52513 33116 ft 501 kts 139°
2026-04-22 11:39 43.80570 19.59220 33116 ft 500 kts 139°
2026-04-22 11:39 43.75528 19.65849 33118 ft 500 kts 140°
2026-04-22 11:40 43.70459 19.72441 33115 ft 500 kts 140°
2026-04-22 11:40 43.66246 19.77904 33121 ft 500 kts 140°
2026-04-22 11:41 43.61165 19.84480 33104 ft 501 kts 140°
2026-04-22 11:41 43.55244 19.92129 33115 ft 502 kts 140°
2026-04-22 11:42 43.50970 19.97638 33121 ft 502 kts 140°
2026-04-22 11:42 43.45860 20.04211 33111 ft 503 kts 141°
2026-04-22 11:43 43.40736 20.10785 33108 ft 504 kts 141°
2026-04-22 11:43 43.35598 20.17361 33118 ft 505 kts 141°
2026-04-22 11:44 43.30453 20.23929 33104 ft 506 kts 141°
2026-04-22 11:44 43.25282 20.30514 33101 ft 507 kts 141°
2026-04-22 11:45 43.20134 20.37056 33097 ft 508 kts 141°
2026-04-22 11:45 43.14953 20.43624 33095 ft 508 kts 141°
2026-04-22 11:46 43.09749 20.50205 33085 ft 508 kts 141°
2026-04-22 11:46 43.04551 20.56765 33081 ft 509 kts 142°
2026-04-22 11:47 42.99337 20.63336 33072 ft 509 kts 141°
2026-04-22 11:47 42.94201 20.70008 33065 ft 510 kts 141°
2026-04-22 11:48 42.89092 20.76732 33073 ft 510 kts 141°
2026-04-22 11:48 42.83971 20.83436 33072 ft 511 kts 141°
2026-04-22 11:49 42.78836 20.90116 33072 ft 510 kts 141°
2026-04-22 11:49 42.73692 20.96782 33064 ft 511 kts 141°
2026-04-22 11:50 42.68535 21.03451 33074 ft 511 kts 142°
2026-04-22 11:50 42.63398 21.10077 33070 ft 513 kts 142°
2026-04-22 11:51 42.58210 21.16755 33072 ft 514 kts 142°
2026-04-22 11:51 42.53007 21.23436 33072 ft 516 kts 142°
2026-04-22 11:52 42.47778 21.30134 33074 ft 517 kts 142°
2026-04-22 11:52 42.42538 21.36832 33063 ft 518 kts 142°
2026-04-22 11:53 42.37297 21.43515 33066 ft 518 kts 142°
2026-04-22 11:53 42.32044 21.50197 33063 ft 518 kts 142°
2026-04-22 11:54 42.26793 21.56863 33051 ft 517 kts 142°
2026-04-22 11:54 42.21538 21.63491 33055 ft 515 kts 143°
2026-04-22 11:55 42.16191 21.69863 33038 ft 512 kts 145°
2026-04-22 11:55 42.10817 21.76123 33048 ft 510 kts 145°
2026-04-22 11:56 42.05499 21.82343 33044 ft 509 kts 145°
2026-04-22 11:56 42.00169 21.88603 33045 ft 508 kts 146°
2026-04-22 11:57 41.94855 21.94843 33040 ft 507 kts 146°
2026-04-22 11:57 41.89538 22.01070 33037 ft 507 kts 146°
2026-04-22 11:58 41.84211 22.07291 33049 ft 508 kts 146°
2026-04-22 11:58 41.78864 22.13522 33046 ft 510 kts 146°
2026-04-22 11:59 41.73495 22.19762 33041 ft 511 kts 146°
2026-04-22 11:59 41.68117 22.26001 33038 ft 513 kts 146°
2026-04-22 12:00 41.62699 22.32271 33041 ft 515 kts 146°
2026-04-22 12:00 41.57278 22.38532 33034 ft 516 kts 146°
2026-04-22 12:01 41.51839 22.44799 33026 ft 517 kts 146°
2026-04-22 12:01 41.46436 22.51011 33031 ft 516 kts 146°
2026-04-22 12:02 41.41001 22.57245 33020 ft 514 kts 146°
2026-04-22 12:02 41.35581 22.63448 33025 ft 512 kts 146°
2026-04-22 12:03 41.30182 22.69614 33021 ft 510 kts 146°
2026-04-22 12:03 41.24825 22.75770 33019 ft 511 kts 143°
2026-04-22 12:04 41.20085 22.82907 33038 ft 516 kts 135°
2026-04-22 12:04 41.15538 22.90265 33022 ft 514 kts 136°
2026-04-22 12:05 41.10933 22.97496 33018 ft 512 kts 137°
2026-04-22 12:05 41.05774 23.03796 33055 ft 500 kts 149°
2026-04-22 12:06 41.00305 23.09517 33039 ft 502 kts 149°
2026-04-22 12:06 40.94848 23.15325 33027 ft 505 kts 148°
2026-04-22 12:07 40.89393 23.21196 33045 ft 507 kts 148°
2026-04-22 12:07 40.83932 23.27045 33036 ft 509 kts 148°
2026-04-22 12:08 40.78418 23.32933 33035 ft 510 kts 148°
2026-04-22 12:08 40.72890 23.38827 33045 ft 510 kts 148°
2026-04-22 12:09 40.67367 23.44706 33047 ft 510 kts 148°
2026-04-22 12:09 40.61848 23.50568 33048 ft 509 kts 148°
2026-04-22 12:10 40.56333 23.56411 33030 ft 508 kts 148°
2026-04-22 12:10 40.50829 23.62232 33037 ft 506 kts 148°
2026-04-22 12:11 40.45345 23.68018 33038 ft 504 kts 148°
2026-04-22 12:11 40.39929 23.73719 33040 ft 502 kts 148°
2026-04-22 12:12 40.34495 23.79427 33032 ft 499 kts 148°
2026-04-22 12:12 40.29085 23.85099 33036 ft 497 kts 148°
2026-04-22 12:13 40.23679 23.90752 33042 ft 497 kts 148°
2026-04-22 12:13 40.18279 23.96387 33038 ft 497 kts 148°
2026-04-22 12:14 40.12863 24.02027 33046 ft 498 kts 148°
2026-04-22 12:14 40.07441 24.07662 33044 ft 499 kts 148°
2026-04-22 12:15 40.02000 24.13306 33040 ft 500 kts 148°
2026-04-22 12:15 39.96536 24.18962 33036 ft 501 kts 148°
2026-04-22 12:16 39.91072 24.24606 33038 ft 502 kts 148°
2026-04-22 12:16 39.85587 24.30261 33032 ft 503 kts 148°
2026-04-22 12:17 39.80103 24.35902 33030 ft 502 kts 148°
2026-04-22 12:17 39.74621 24.41530 33027 ft 502 kts 148°
2026-04-22 12:18 39.69145 24.47141 33025 ft 501 kts 148°
2026-04-22 12:18 39.63709 24.52698 33021 ft 500 kts 148°
2026-04-22 12:19 39.58255 24.58263 33016 ft 498 kts 148°
2026-04-22 12:19 39.52812 24.63806 33016 ft 497 kts 148°
2026-04-22 12:20 39.47374 24.69329 33013 ft 496 kts 148°
2026-04-22 12:20 39.42868 24.73892 33013 ft 495 kts 148°
2026-04-22 12:21 39.36531 24.80297 33012 ft 494 kts 147°
2026-04-22 12:21 39.31115 24.85762 33015 ft 494 kts 147°
2026-04-22 12:22 39.25697 24.91220 33003 ft 494 kts 148°
2026-04-22 12:22 39.20266 24.96680 33004 ft 495 kts 148°
2026-04-22 12:23 39.14825 25.02134 32996 ft 495 kts 147°
2026-04-22 12:23 39.09378 25.07586 33006 ft 496 kts 147°
2026-04-22 12:24 39.03920 25.13042 32991 ft 497 kts 147°
2026-04-22 12:24 38.98473 25.18526 32984 ft 500 kts 144°
2026-04-22 12:25 38.93391 25.24607 32989 ft 503 kts 140°
2026-04-22 12:25 38.88400 25.30908 32978 ft 503 kts 140°
2026-04-22 12:26 38.83389 25.37174 32983 ft 503 kts 140°
2026-04-22 12:26 38.78341 25.43389 32978 ft 502 kts 141°
2026-04-22 12:27 38.73288 25.49561 32973 ft 501 kts 141°
2026-04-22 12:27 38.68243 25.55709 32970 ft 501 kts 141°
2026-04-22 12:28 38.64047 25.60814 32966 ft 500 kts 141°
2026-04-22 12:28 38.59007 25.66939 32970 ft 499 kts 141°
2026-04-22 12:29 38.53973 25.73045 32967 ft 499 kts 141°
2026-04-22 12:29 38.48937 25.79141 32962 ft 498 kts 141°
2026-04-22 12:30 38.41389 25.88252 32964 ft 498 kts 141°
2026-04-22 12:31 38.36358 25.94312 32965 ft 498 kts 141°
2026-04-22 12:31 38.31323 26.00363 32971 ft 498 kts 141°
2026-04-22 12:32 38.26278 26.06413 32961 ft 499 kts 141°
2026-04-22 12:32 38.18690 26.15492 32963 ft 499 kts 141°
2026-04-22 12:33 38.13659 26.21496 32963 ft 499 kts 141°
2026-04-22 12:33 38.08594 26.27530 32960 ft 499 kts 141°
2026-04-22 12:34 38.03523 26.33558 32957 ft 499 kts 141°
2026-04-22 12:34 37.98447 26.39580 32956 ft 500 kts 141°
2026-04-22 12:35 37.93367 26.45595 32958 ft 500 kts 141°
2026-04-22 12:35 37.88315 26.51565 32959 ft 499 kts 141°
2026-04-22 12:36 37.83233 26.57558 32965 ft 499 kts 141°
2026-04-22 12:36 37.78150 26.63541 32975 ft 499 kts 141°
2026-04-22 12:37 37.73058 26.69522 32974 ft 499 kts 141°
2026-04-22 12:37 37.67971 26.75486 32990 ft 499 kts 141°
2026-04-22 12:38 37.62880 26.81443 32996 ft 499 kts 141°
2026-04-22 12:38 37.57783 26.87396 32990 ft 499 kts 141°
2026-04-22 12:39 37.50131 26.96310 32980 ft 499 kts 141°
2026-04-22 12:40 37.45032 27.02235 32976 ft 499 kts 141°
2026-04-22 12:40 37.39926 27.08158 32984 ft 499 kts 141°
2026-04-22 12:41 37.34820 27.14069 32975 ft 498 kts 141°
2026-04-22 12:41 37.29718 27.19963 32981 ft 498 kts 141°
2026-04-22 12:42 37.24615 27.25847 32982 ft 498 kts 141°
2026-04-22 12:42 37.19508 27.31726 32988 ft 498 kts 141°
2026-04-22 12:43 37.14443 27.37544 32984 ft 497 kts 141°
2026-04-22 12:43 37.09335 27.43401 32987 ft 497 kts 141°
2026-04-22 12:44 37.04231 27.49242 32986 ft 497 kts 141°
2026-04-22 12:44 36.99121 27.55077 32983 ft 497 kts 141°
2026-04-22 12:45 36.94007 27.60907 32980 ft 497 kts 141°
2026-04-22 12:45 36.88896 27.66724 32980 ft 497 kts 142°
2026-04-22 12:46 36.83813 27.72497 32981 ft 497 kts 142°
2026-04-22 12:46 36.78698 27.78294 32984 ft 497 kts 142°
2026-04-22 12:47 36.73577 27.84088 32970 ft 497 kts 142°
2026-04-22 12:47 36.68453 27.89875 32973 ft 497 kts 142°
2026-04-22 12:48 36.63323 27.95658 32971 ft 497 kts 142°
2026-04-22 12:48 36.58188 28.01434 32971 ft 497 kts 142°
2026-04-22 12:49 36.53054 28.07200 32959 ft 497 kts 142°
2026-04-22 12:49 36.47919 28.12956 32968 ft 497 kts 142°
2026-04-22 12:50 36.42780 28.18705 32965 ft 497 kts 142°
2026-04-22 12:50 36.37640 28.24445 32971 ft 497 kts 142°
2026-04-22 12:51 36.32498 28.30176 32971 ft 497 kts 142°
2026-04-22 12:51 36.27350 28.35904 32974 ft 497 kts 142°
2026-04-22 12:52 36.22206 28.41616 32980 ft 497 kts 142°
2026-04-22 12:52 36.17061 28.47320 32988 ft 496 kts 142°
2026-04-22 12:53 36.11949 28.52976 32992 ft 496 kts 142°
2026-04-22 12:53 36.06796 28.58667 32994 ft 496 kts 142°
2026-04-22 12:54 36.01641 28.64350 33002 ft 496 kts 142°
2026-04-22 12:54 35.96491 28.70018 33000 ft 496 kts 142°
2026-04-22 12:55 35.91339 28.75676 32999 ft 496 kts 142°
2026-04-22 12:55 35.86186 28.81326 33002 ft 496 kts 142°
2026-04-22 12:56 35.81026 28.86973 33005 ft 495 kts 142°
2026-04-22 12:56 35.75870 28.92605 33001 ft 495 kts 142°
2026-04-22 12:57 35.70714 28.98228 33004 ft 495 kts 142°
2026-04-22 12:57 35.65550 29.03849 33002 ft 495 kts 142°
2026-04-22 12:58 35.60395 29.09450 33005 ft 495 kts 142°
2026-04-22 12:58 35.55230 29.15052 33006 ft 495 kts 142°
2026-04-22 12:59 35.50070 29.20640 33007 ft 495 kts 142°
2026-04-22 12:59 35.44937 29.26186 33007 ft 495 kts 142°
2026-04-22 13:00 35.39774 29.31757 33007 ft 494 kts 142°
2026-04-22 13:00 35.34608 29.37320 33005 ft 494 kts 142°
2026-04-22 13:01 35.29438 29.42878 33012 ft 494 kts 142°
2026-04-22 13:01 35.24269 29.48425 33009 ft 494 kts 142°
2026-04-22 13:02 35.19101 29.53962 33009 ft 494 kts 142°
2026-04-22 13:02 35.13931 29.59490 33010 ft 494 kts 142°
2026-04-22 13:03 35.08761 29.65009 33010 ft 494 kts 142°
2026-04-22 13:03 35.03584 29.70526 33007 ft 493 kts 142°
2026-04-22 13:04 34.98406 29.76034 33011 ft 493 kts 142°
2026-04-22 13:04 34.93232 29.81529 33007 ft 493 kts 142°
2026-04-22 13:05 34.88093 29.86977 33004 ft 493 kts 142°
2026-04-22 13:05 34.82913 29.92461 33010 ft 493 kts 142°
2026-04-22 13:06 34.77740 29.97929 33014 ft 493 kts 141°
2026-04-22 13:06 34.73207 30.04210 33015 ft 498 kts 126°
2026-04-22 13:07 34.69336 30.11200 33007 ft 498 kts 126°
2026-04-22 13:07 34.65471 30.18190 33010 ft 498 kts 126°
2026-04-22 13:08 34.61560 30.25136 33009 ft 498 kts 126°
2026-04-22 13:08 34.57631 30.32046 33008 ft 497 kts 127°
2026-04-22 13:09 34.53720 30.38908 33014 ft 497 kts 127°
2026-04-22 13:09 34.49786 30.45802 33014 ft 497 kts 126°
2026-04-22 13:10 34.45851 30.52688 33014 ft 497 kts 127°
2026-04-22 13:10 34.41908 30.59575 33013 ft 497 kts 127°
2026-04-22 13:11 34.37962 30.66453 33011 ft 497 kts 127°
2026-04-22 13:11 34.34027 30.73301 33013 ft 497 kts 127°
2026-04-22 13:12 34.30071 30.80171 33014 ft 497 kts 127°
2026-04-22 13:12 34.26118 30.87027 33015 ft 496 kts 127°
2026-04-22 13:13 34.22180 30.93834 33017 ft 496 kts 127°
2026-04-22 13:13 34.18882 30.99512 33014 ft 496 kts 127°
2026-04-22 13:14 34.14241 31.07489 33014 ft 496 kts 127°
2026-04-22 13:14 34.10271 31.14304 33016 ft 496 kts 127°
2026-04-22 13:15 34.06961 31.19976 33016 ft 496 kts 127°
2026-04-22 13:15 34.02331 31.27895 33017 ft 497 kts 127°
2026-04-22 13:16 33.98997 31.33588 33016 ft 497 kts 127°
2026-04-22 13:16 33.95007 31.40388 33014 ft 496 kts 127°
2026-04-22 13:17 33.91018 31.47175 33014 ft 497 kts 127°
2026-04-22 13:17 33.87026 31.53956 33021 ft 496 kts 127°
2026-04-22 13:18 33.83030 31.60730 33015 ft 496 kts 128°
2026-04-22 13:18 33.80792 31.63869 33006 ft 492 kts 140°
2026-04-22 13:18 33.78149 31.66362 33024 ft 487 kts 151°
2026-04-22 13:18 33.75190 31.68281 33014 ft 482 kts 162°
2026-04-22 13:19 33.72028 31.69535 33036 ft 477 kts 168°
2026-04-22 13:19 33.65637 31.71722 33019 ft 478 kts 168°
2026-04-22 13:20 33.59254 31.73972 33021 ft 479 kts 167°
2026-04-22 13:20 33.52868 31.76289 33024 ft 479 kts 167°
2026-04-22 13:21 33.46477 31.78607 33021 ft 480 kts 167°
2026-04-22 13:21 33.40085 31.80912 33021 ft 480 kts 167°
2026-04-22 13:22 33.33692 31.83213 33021 ft 480 kts 167°
2026-04-22 13:22 33.27299 31.85512 33021 ft 480 kts 167°
2026-04-22 13:23 33.20910 31.87807 33022 ft 479 kts 167°
2026-04-22 13:23 33.14525 31.90096 33018 ft 479 kts 167°
2026-04-22 13:24 33.08188 31.92366 33022 ft 479 kts 167°
2026-04-22 13:24 33.01807 31.94647 33020 ft 478 kts 167°
2026-04-22 13:25 32.95440 31.96921 33019 ft 478 kts 167°
2026-04-22 13:25 32.89072 31.99191 33019 ft 477 kts 167°
2026-04-22 13:26 32.82714 32.01454 33021 ft 477 kts 167°
2026-04-22 13:26 32.76350 32.03716 33017 ft 477 kts 167°
2026-04-22 13:27 32.69986 32.05975 33028 ft 477 kts 168°
2026-04-22 13:27 32.63680 32.08458 33007 ft 481 kts 159°
2026-04-22 13:28 32.57962 32.12680 33024 ft 487 kts 147°
2026-04-22 13:28 32.52493 32.17456 33012 ft 488 kts 147°
2026-04-22 13:29 32.47045 32.22161 33015 ft 488 kts 147°
2026-04-22 13:29 32.41530 32.26846 33018 ft 488 kts 148°
2026-04-22 13:30 32.36001 32.31515 33024 ft 488 kts 148°
2026-04-22 13:30 32.30466 32.36186 33021 ft 488 kts 148°
2026-04-22 13:31 32.24934 32.40851 33014 ft 488 kts 148°
2026-04-22 13:31 32.19401 32.45511 33010 ft 488 kts 148°
2026-04-22 13:32 32.13866 32.50163 33013 ft 488 kts 148°
2026-04-22 13:32 32.08320 32.54810 33013 ft 488 kts 148°
2026-04-22 13:33 32.02779 32.59447 33012 ft 489 kts 148°
2026-04-22 13:33 31.97273 32.64050 33013 ft 489 kts 148°
2026-04-22 13:34 31.91727 32.68680 33013 ft 489 kts 148°
2026-04-22 13:34 31.86134 32.73342 33015 ft 489 kts 148°
2026-04-22 13:35 31.80617 32.77933 33019 ft 489 kts 149°
2026-04-22 13:35 31.75061 32.82551 33019 ft 489 kts 149°
2026-04-22 13:36 31.69496 32.87169 33015 ft 489 kts 149°
2026-04-22 13:36 31.63933 32.91779 33018 ft 489 kts 149°
2026-04-22 13:37 31.58369 32.96382 33018 ft 489 kts 149°
2026-04-22 13:37 31.52803 33.00981 33019 ft 489 kts 149°
2026-04-22 13:38 31.47233 33.05576 33024 ft 489 kts 149°
2026-04-22 13:38 31.38880 33.12451 33026 ft 489 kts 150°
2026-04-22 13:39 31.32881 33.15932 33024 ft 477 kts 167°
2026-04-22 13:39 31.26581 33.18321 33014 ft 476 kts 167°
2026-04-22 13:40 31.20266 33.20695 33022 ft 476 kts 167°
2026-04-22 13:40 31.13964 33.23114 33020 ft 477 kts 167°
2026-04-22 13:41 31.07662 33.25559 33023 ft 478 kts 167°
2026-04-22 13:41 31.01391 33.27996 33022 ft 478 kts 167°
2026-04-22 13:42 30.95085 33.30441 33020 ft 478 kts 167°
2026-04-22 13:42 30.88760 33.32888 33019 ft 479 kts 167°
2026-04-22 13:43 30.82439 33.35329 33009 ft 479 kts 167°
2026-04-22 13:43 30.76111 33.37770 33005 ft 479 kts 167°
2026-04-22 13:44 30.69773 33.40212 33004 ft 480 kts 167°
2026-04-22 13:44 30.63440 33.42648 32990 ft 479 kts 167°
2026-04-22 13:45 30.57109 33.45080 32982 ft 479 kts 167°
2026-04-22 13:45 30.50769 33.47513 32987 ft 479 kts 167°
2026-04-22 13:46 30.44441 33.49937 32982 ft 479 kts 167°
2026-04-22 13:46 30.38147 33.52345 32977 ft 479 kts 167°
2026-04-22 13:47 30.31815 33.54765 32971 ft 479 kts 167°
2026-04-22 13:47 30.25485 33.57181 32965 ft 479 kts 167°
2026-04-22 13:48 30.19152 33.59592 32964 ft 479 kts 167°
2026-04-22 13:48 30.12824 33.61999 32958 ft 479 kts 167°
2026-04-22 13:49 30.06495 33.64404 32957 ft 479 kts 167°
2026-04-22 13:49 30.00162 33.66807 32952 ft 479 kts 167°
2026-04-22 13:50 29.93811 33.69214 32952 ft 479 kts 167°
2026-04-22 13:50 29.87471 33.71614 32948 ft 480 kts 167°
2026-04-22 13:51 29.81163 33.73998 32952 ft 480 kts 167°
2026-04-22 13:51 29.74814 33.76395 32948 ft 480 kts 167°
2026-04-22 13:52 29.68455 33.78793 32947 ft 481 kts 167°
2026-04-22 13:52 29.62107 33.81183 32946 ft 480 kts 167°
2026-04-22 13:53 29.55909 33.84221 32951 ft 487 kts 159°
2026-04-22 13:53 29.49858 33.87723 32940 ft 487 kts 159°
2026-04-22 13:54 29.43813 33.91227 32941 ft 486 kts 159°
2026-04-22 13:54 29.37753 33.94676 32947 ft 485 kts 160°
2026-04-22 13:55 29.31689 33.98089 32937 ft 485 kts 160°
2026-04-22 13:55 29.25678 34.01462 32938 ft 484 kts 160°
2026-04-22 13:56 29.19631 34.04853 32932 ft 484 kts 160°
2026-04-22 13:56 29.13586 34.08240 32933 ft 484 kts 160°
2026-04-22 13:57 29.07538 34.11626 32922 ft 484 kts 160°
2026-04-22 13:57 29.01489 34.15007 32916 ft 484 kts 161°
2026-04-22 13:58 28.95445 34.18382 32914 ft 483 kts 161°
2026-04-22 13:58 28.89397 34.21753 32903 ft 483 kts 161°
2026-04-22 13:59 28.83362 34.25114 32923 ft 483 kts 162°
2026-04-22 13:59 28.77319 34.28474 32897 ft 483 kts 162°
2026-04-22 14:00 28.71275 34.31830 32889 ft 483 kts 162°
2026-04-22 14:00 28.65242 34.35176 32879 ft 483 kts 162°
2026-04-22 14:01 28.59209 34.38518 32868 ft 482 kts 162°
2026-04-22 14:01 28.53224 34.41830 32866 ft 482 kts 162°
2026-04-22 14:02 28.47181 34.45167 32866 ft 482 kts 162°
2026-04-22 14:02 28.41143 34.48499 32859 ft 482 kts 163°
2026-04-22 14:03 28.35108 34.51826 32854 ft 482 kts 163°
2026-04-22 14:03 28.29075 34.55147 32844 ft 482 kts 163°
2026-04-22 14:04 28.24060 34.57904 32847 ft 481 kts 163°
2026-04-22 14:04 28.18035 34.61213 32838 ft 481 kts 163°
2026-04-22 14:05 28.12014 34.64515 32841 ft 481 kts 163°
2026-04-22 14:06 28.02982 34.69461 32839 ft 480 kts 163°
2026-04-22 14:06 27.96967 34.72749 32835 ft 480 kts 163°
2026-04-22 14:07 27.90945 34.76037 32830 ft 480 kts 163°
2026-04-22 14:07 27.84929 34.79318 32823 ft 480 kts 163°
2026-04-22 14:08 27.78951 34.82574 32821 ft 480 kts 163°
2026-04-22 14:08 27.72922 34.85854 32820 ft 481 kts 163°
2026-04-22 14:09 27.66895 34.89128 32814 ft 481 kts 163°
2026-04-22 14:09 27.60862 34.92402 32814 ft 481 kts 163°
2026-04-22 14:10 27.54824 34.95675 32816 ft 482 kts 164°
2026-04-22 14:10 27.48778 34.98948 32813 ft 482 kts 164°
2026-04-22 14:11 27.42719 35.02224 32813 ft 483 kts 164°
2026-04-22 14:11 27.36663 35.05495 32815 ft 483 kts 164°
2026-04-22 14:12 27.30601 35.08765 32811 ft 483 kts 164°
2026-04-22 14:12 27.24561 35.12019 32809 ft 484 kts 164°
2026-04-22 14:13 27.18484 35.15289 32812 ft 484 kts 164°
2026-04-22 14:13 27.12410 35.18553 32813 ft 484 kts 164°
2026-04-22 14:14 27.06332 35.21815 32813 ft 484 kts 165°
2026-04-22 14:14 27.00246 35.25078 32812 ft 484 kts 165°
2026-04-22 14:15 26.94165 35.28335 32807 ft 484 kts 165°
2026-04-22 14:15 26.88091 35.31584 32805 ft 484 kts 165°
2026-04-22 14:16 26.81997 35.34839 32799 ft 484 kts 165°
2026-04-22 14:16 26.75947 35.38068 32801 ft 484 kts 165°
2026-04-22 14:17 26.69861 35.41312 32800 ft 484 kts 165°
2026-04-22 14:17 26.63776 35.44552 32798 ft 485 kts 166°
2026-04-22 14:18 26.57916 35.48479 32799 ft 511 kts 146°
2026-04-22 14:18 26.55523 35.51509 32794 ft 529 kts 131°
2026-04-22 14:18 26.53769 35.55156 32810 ft 538 kts 120°
2026-04-22 14:19 26.50916 35.62898 32793 ft 540 kts 118°
2026-04-22 14:19 26.48103 35.70670 32791 ft 540 kts 119°
2026-04-22 14:20 26.43712 35.82253 32789 ft 540 kts 120°
2026-04-22 14:20 26.40736 35.89960 32785 ft 541 kts 120°
2026-04-22 14:21 26.36264 36.01549 32787 ft 543 kts 120°
2026-04-22 14:22 26.31782 36.13155 32790 ft 544 kts 120°
2026-04-22 14:23 26.27282 36.24775 32795 ft 545 kts 120°
2026-04-22 14:23 26.24292 36.32475 32798 ft 545 kts 120°
2026-04-22 14:24 26.21282 36.40216 32808 ft 545 kts 120°
2026-04-22 14:24 26.18267 36.47952 32807 ft 544 kts 121°
2026-04-22 14:25 26.14869 36.55411 32806 ft 538 kts 127°
2026-04-22 14:25 26.11199 36.62663 32793 ft 537 kts 127°
2026-04-22 14:26 26.07539 36.69911 32792 ft 537 kts 127°
2026-04-22 14:26 26.03926 36.77190 32783 ft 538 kts 126°
2026-04-22 14:27 26.00325 36.84485 32783 ft 537 kts 126°
2026-04-22 14:27 25.96725 36.91762 32785 ft 537 kts 126°
2026-04-22 14:28 25.93119 36.99027 32788 ft 537 kts 126°
2026-04-22 14:28 25.89529 37.06245 32786 ft 537 kts 126°
2026-04-22 14:29 25.85922 37.13490 32787 ft 537 kts 126°
2026-04-22 14:29 25.82310 37.20735 32791 ft 536 kts 126°
2026-04-22 14:30 25.78696 37.27973 32777 ft 536 kts 126°
2026-04-22 14:30 25.75092 37.35209 32793 ft 535 kts 126°
2026-04-22 14:31 25.71500 37.42420 32808 ft 534 kts 126°
2026-04-22 14:31 25.67907 37.49619 32817 ft 532 kts 126°
2026-04-22 14:32 25.64320 37.56793 32820 ft 531 kts 126°
2026-04-22 14:32 25.60752 37.63911 32837 ft 533 kts 126°
2026-04-22 14:33 25.57132 37.71120 32806 ft 536 kts 126°
2026-04-22 14:33 25.53504 37.78343 32809 ft 537 kts 126°
2026-04-22 14:34 25.49871 37.85565 32795 ft 536 kts 126°
2026-04-22 14:34 25.46246 37.92762 32791 ft 533 kts 126°
2026-04-22 14:35 25.42641 37.99906 32771 ft 530 kts 126°
2026-04-22 14:35 25.39048 38.07009 32442 ft 532 kts 126°
2026-04-22 14:35 25.37232 38.10590 31757 ft 533 kts 126°
2026-04-22 14:36 25.35440 38.14125 31047 ft 534 kts 125°
2026-04-22 14:36 25.33621 38.17712 30344 ft 535 kts 125°
2026-04-22 14:36 25.31796 38.21307 29515 ft 537 kts 124°
2026-04-22 14:36 25.29961 38.24920 28598 ft 539 kts 124°
2026-04-22 14:37 25.28123 38.28539 27706 ft 540 kts 124°
2026-04-22 14:37 25.26277 38.32169 26898 ft 539 kts 124°
2026-04-22 14:37 25.24457 38.35753 26308 ft 533 kts 124°
2026-04-22 14:37 25.22653 38.39300 25682 ft 528 kts 124°
2026-04-22 14:38 25.20860 38.42820 25053 ft 523 kts 124°
2026-04-22 14:38 25.19083 38.46306 24438 ft 518 kts 124°
2026-04-22 14:38 25.17325 38.49749 23810 ft 513 kts 124°
2026-04-22 14:38 25.15576 38.53171 23172 ft 509 kts 124°
2026-04-22 14:39 25.13868 38.56511 22468 ft 503 kts 124°
2026-04-22 14:39 25.12157 38.59855 21814 ft 498 kts 124°
2026-04-22 14:39 25.10446 38.63197 21183 ft 491 kts 123°
2026-04-22 14:40 25.07675 38.68602 20193 ft 482 kts 123°
2026-04-22 14:40 25.05503 38.72834 19363 ft 474 kts 123°
2026-04-22 14:40 25.03892 38.75973 18807 ft 468 kts 123°
2026-04-22 14:40 25.02297 38.79076 18219 ft 462 kts 123°
2026-04-22 14:41 25.00720 38.82144 17565 ft 457 kts 123°
2026-04-22 14:41 24.99162 38.85173 16935 ft 452 kts 123°
2026-04-22 14:41 24.97620 38.88168 16326 ft 446 kts 123°
2026-04-22 14:41 24.96259 38.91220 15854 ft 442 kts 114°
2026-04-22 14:42 24.95367 38.94422 15505 ft 434 kts 104°
2026-04-22 14:42 24.94757 38.97653 15110 ft 426 kts 104°
2026-04-22 14:42 24.94154 39.00820 14706 ft 419 kts 104°
2026-04-22 14:42 24.93550 39.03936 14316 ft 412 kts 104°
2026-04-22 14:43 24.92947 39.06998 13931 ft 405 kts 104°
2026-04-22 14:43 24.92347 39.10005 13524 ft 400 kts 105°
2026-04-22 14:43 24.91751 39.12973 13111 ft 394 kts 105°
2026-04-22 14:43 24.91159 39.15904 12720 ft 390 kts 105°
2026-04-22 14:44 24.90573 39.18801 12345 ft 386 kts 105°
2026-04-22 14:44 24.89994 39.21664 11971 ft 380 kts 104°
2026-04-22 14:44 24.89424 39.24481 11606 ft 374 kts 104°
2026-04-22 14:44 24.88862 39.27252 11253 ft 369 kts 104°
2026-04-22 14:45 24.88307 39.29990 10910 ft 364 kts 104°
2026-04-22 14:45 24.87761 39.32680 10557 ft 354 kts 104°
2026-04-22 14:45 24.87236 39.35269 10224 ft 340 kts 104°
2026-04-22 14:45 24.86727 39.37770 9940 ft 326 kts 104°
2026-04-22 14:46 24.86251 39.40119 9948 ft 304 kts 105°
2026-04-22 14:46 24.85809 39.42300 9865 ft 288 kts 105°
2026-04-22 14:46 24.85374 39.44428 9532 ft 283 kts 105°
2026-04-22 14:46 24.84941 39.46543 9053 ft 283 kts 105°
2026-04-22 14:47 24.84510 39.48647 8621 ft 282 kts 105°
2026-04-22 14:47 24.84080 39.50747 8247 ft 279 kts 105°
2026-04-22 14:47 24.83655 39.52824 7953 ft 277 kts 105°
2026-04-22 14:47 24.83237 39.54867 7696 ft 271 kts 105°
2026-04-22 14:48 24.82826 39.56879 7422 ft 266 kts 105°
2026-04-22 14:48 24.82423 39.58846 7163 ft 261 kts 105°
2026-04-22 14:48 24.82029 39.60766 6898 ft 254 kts 105°
2026-04-22 14:48 24.81646 39.62634 6671 ft 247 kts 106°
2026-04-22 14:49 24.81153 39.64408 6415 ft 237 kts 126°
2026-04-22 14:49 24.79979 39.65528 6235 ft 217 kts 166°
2026-04-22 14:49 24.78555 39.65861 6126 ft 207 kts 172°
2026-04-22 14:49 24.77161 39.66165 5881 ft 200 kts 172°
2026-04-22 14:50 24.75815 39.66454 5621 ft 193 kts 173°
2026-04-22 14:50 24.75215 39.66581 5486 ft 189 kts 173°
2026-04-22 14:50 24.74939 39.66639 5428 ft 187 kts 173°
2026-04-22 14:51 24.73697 39.66905 5215 ft 177 kts 173°
2026-04-22 14:51 24.72522 39.67157 5003 ft 167 kts 174°
2026-04-22 14:51 24.71830 39.67303 4859 ft 164 kts 174°
2026-04-22 14:52 24.71723 39.67326 4843 ft 163 kts 174°
2026-04-22 14:52 24.70994 39.67482 4733 ft 159 kts 174°
2026-04-22 14:53 24.69551 39.67789 4474 ft 160 kts 174°
2026-04-22 14:53 24.68818 39.67946 4306 ft 158 kts 174°
2026-04-22 14:53 24.67442 39.68239 4047 ft 147 kts 175°
2026-04-22 14:53 24.66443 39.68450 3868 ft 147 kts 175°
2026-04-22 14:54 24.65415 39.68671 3692 ft 149 kts 175°
2026-04-22 14:54 24.64740 39.68817 3547 ft 146 kts 175°
2026-04-22 14:54 24.63741 39.69029 3337 ft 140 kts 175°
2026-04-22 14:54 24.62805 39.69253 3087 ft 135 kts 171°
2026-04-22 14:55 24.61795 39.69518 3043 ft 161 kts 173°
2026-04-22 14:55 24.60676 39.69733 2898 ft 167 kts 177°
2026-04-22 14:55 24.59526 39.69941 2721 ft 158 kts 173°
2026-04-22 14:55 24.58468 39.70179 2373 ft 152 kts 175°
2026-04-22 14:56 24.57469 39.70376 2151 ft 140 kts 172°
2026-04-22 14:56 24.56540 39.70586 2127 ft 136 kts 174°
2026-04-22 14:56 24.55664 39.70731 2104 ft 134 kts 174°
2026-04-22 14:56 24.54731 39.70985 2571 ft 149 kts 149°
2026-04-22 14:57 24.54230 39.72140 2825 ft 196 kts 90°
2026-04-22 14:57 24.54974 39.73399 3079 ft 217 kts
2026-04-22 14:57 24.56157 39.72730 3709 ft 184 kts 312°
2026-04-22 14:57 24.57214 39.71666 4017 ft 230 kts 311°
2026-04-22 14:58 24.58442 39.70441 4046 ft 239 kts 314°
2026-04-22 14:58 24.59681 39.69289 4063 ft 226 kts 314°
2026-04-22 14:58 24.60845 39.68218 3994 ft 211 kts 315°
2026-04-22 14:58 24.61949 39.67209 3993 ft 205 kts 315°
2026-04-22 14:59 24.63074 39.66251 3993 ft 212 kts 328°
2026-04-22 14:59 24.64499 39.65942 3983 ft 209 kts
2026-04-22 14:59 24.65801 39.66609 4012 ft 213 kts 44°
2026-04-22 14:59 24.66538 39.68000 4000 ft 211 kts 84°
2026-04-22 15:00 24.66278 39.69471 3993 ft 188 kts 140°
2026-04-22 15:00 24.65066 39.69888 3651 ft 197 kts 185°
2026-04-22 15:00 24.63704 39.69817 3393 ft 192 kts 191°
2026-04-22 15:00 24.62427 39.69632 3008 ft 178 kts 189°
2026-04-22 15:01 24.61322 39.69575 3093 ft 138 kts 182°
2026-04-22 15:01 24.60502 39.69747 3049 ft 122 kts 170°
2026-04-22 15:01 24.59613 39.69970 2738 ft 133 kts 179°
2026-04-22 15:01 24.58619 39.70146 2452 ft 151 kts 173°
2026-04-22 15:02 24.57631 39.70351 2194 ft 137 kts 174°
2026-04-22 15:02 24.56776 39.70551 2128 ft 117 kts 174°
2026-04-22 15:02 24.55945 39.70698 2114 ft 116 kts 172°
2026-04-22 15:02 24.55077 39.70903 2097 ft 125 kts 178°
2026-04-22 15:03 24.54613 39.70974 2088 ft 12 kts 169°
2026-04-22 15:03 24.54470 39.71002 2085 ft 26 kts 170°
2026-04-22 15:03 24.54301 39.71037 2082 ft 24 kts 168°
2026-04-22 15:03 24.54143 39.71073 2074 ft 23 kts 168°
2026-04-22 15:04 24.53990 39.71108 2072 ft 22 kts 168°
2026-04-22 15:04 24.53914 39.71221 2074 ft 21 kts 79°
2026-04-22 15:04 24.53992 39.71297 2074 ft 15 kts
2026-04-22 15:04 24.54088 39.71281 2076 ft 14 kts 345°
2026-04-22 15:05 24.54179 39.71260 2078 ft 13 kts 350°
2026-04-22 15:05 24.54269 39.71241 2080 ft 13 kts 348°
2026-04-22 15:05 24.54355 39.71223 2082 ft 13 kts 349°
2026-04-22 15:05 24.54439 39.71205 2083 ft 12 kts 349°
2026-04-22 15:06 24.54563 39.71179 2086 ft 26 kts 349°
2026-04-22 15:06 24.54777 39.71133 2090 ft 56 kts 348°
2026-04-22 15:06 24.55138 39.71054 2097 ft 24 kts 349°
2026-04-22 15:06 24.55234 39.71085 2099 ft 8 kts 63°
2026-04-22 15:07 24.55248 39.71195 2099 ft 5 kts 61°
2026-04-22 15:07 24.55250 39.71198 2099 ft 2 kts 54°
2026-04-22 15:07 24.55296 39.71221 2100 ft 11 kts
2026-04-22 15:07 24.55355 39.71204 2101 ft 8 kts 343°
2026-04-22 15:08 24.55415 39.71193 2103 ft 24 kts 352°
2026-04-22 15:08 24.55637 39.71147 2107 ft 32 kts 349°
2026-04-22 15:08 24.55737 39.71179 2109 ft 8 kts 72°
2026-04-22 15:08 24.55738 39.71200 2109 ft 0 kts 84°
2026-04-22 15:09 24.55743 39.71230 2112 ft 13 kts 79°
2026-04-22 15:09 24.55745 39.71239 2111 ft 0 kts 78°
2026-04-22 15:09 24.55745 39.71240 2111 ft 0 kts 78°